This is the latest recevied weather packets stored in our database for station/object N1UNH. If no packets are shown the sender has not sent any weather packets the latest 10 day(s).
| Time | Temp. | Humidity | Pressure | Rain* | Wind** | Luminosity | Snow |
|---|---|---|---|---|---|---|---|
| 1777782337 | 5° C | 96% | 1015.9 hPa | 0 mm | - | 0 W/m² | - |
| 1777782033 | 5° C | 96% | 1015.8 hPa | 0 mm | - | 0 W/m² | - |
| 1777781730 | 5° C | 95% | 1015.9 hPa | 0 mm | - | 0 W/m² | - |
| 1777781428 | 5° C | 95% | 1016.2 hPa | 0 mm | - | 0 W/m² | - |
| 1777781125 | 5° C | 95% | 1015.8 hPa | 0 mm | - | 0 W/m² | - |
| 1777780822 | 5.56° C | 95% | 1016 hPa | 0 mm | - | 0 W/m² | - |
| 1777780519 | 5° C | 95% | 1016 hPa | 0 mm | - | 0 W/m² | - |
| 1777780217 | 5° C | 95% | 1016.1 hPa | 0 mm | - | 0 W/m² | - |
| 1777779914 | 5° C | 95% | 1016.2 hPa | 0 mm | - | 0 W/m² | - |
| 1777779611 | 5° C | 95% | 1016.3 hPa | 0 mm | - | 0 W/m² | - |
| 1777779308 | 5.56° C | 95% | 1016.2 hPa | 0 mm | - | 0 W/m² | - |
| 1777779006 | 5.56° C | 95% | 1016.5 hPa | 0 mm | - | 0 W/m² | - |
| 1777778704 | 5.56° C | 95% | 1016.3 hPa | 0 mm | - | 0 W/m² | - |
| 1777778402 | 5.56° C | 95% | 1016.3 hPa | 0 mm | - | 0 W/m² | - |
| 1777778099 | 5.56° C | 95% | 1016.4 hPa | 0 mm | - | 0 W/m² | - |
| 1777777796 | 5.56° C | 95% | 1016.4 hPa | 0 mm | - | 0 W/m² | - |
| 1777777492 | 5.56° C | 95% | 1016.5 hPa | 0 mm | - | 0 W/m² | - |
| 1777777189 | 6.11° C | 95% | 1016.4 hPa | 1.78 mm | - | 0 W/m² | - |
| 1777776886 | 6.11° C | 95% | 1016.3 hPa | 1.78 mm | - | 0 W/m² | - |
| 1777776583 | 6.11° C | 96% | 1016.6 hPa | 1.27 mm | - | 0 W/m² | - |
| 1777776280 | 6.11° C | 96% | 1016.5 hPa | 1.27 mm | - | 0 W/m² | - |
| 1777775977 | 6.67° C | 96% | 1016.5 hPa | 4.83 mm | - | 0 W/m² | - |
| 1777775674 | 7.78° C | 96% | 1016.6 hPa | 4.83 mm | - | 0 W/m² | - |
| 1777775371 | 7.78° C | 96% | 1016.4 hPa | 0 mm | - | 0 W/m² | - |
| 1777775066 | 7.22° C | 96% | 1016.4 hPa | 0 mm | - | 0 W/m² | - |
* Rain latest hour (hover to see other rain measurements)
** Current wind speed in m/s (hover to see current wind gust speed)